Location: Unspecified
(43.4680°N, 87.1740°E)
Time: 20:04:40
(UTC+00:00)

DELTA 2 R/B (1) - Pass Details

Date: 17 April 2021
Orbit: 790 x 803 km, 39.6° (Epoch: 12 May)

Event Time Altitude Azimuth Distance (km) Brightness Sun altitude
Exits shadow 22:49:38 - 265° (W) 2,616 5.6 -6.8°
Reaches altitude 10° 22:50:21 10° 264° (W) 2,353 5.4 -6.7°
Maximum altitude 22:55:46 56° 187° (S) 936 3.8 -5.7°
Drops below altitude 10° 23:01:12 10° 110° (ESE) 2,360 6.9 -4.8°
Sets 23:03:44 0° 106° (ESE) 3,291 7.8 -4.4°
